Location: Powder Track
(41.8531°N, 72.3584°W)
Time: 10:13:53
(UTC+00:00)

Tiros 1 - Visible Passes

Search period start: 31 July 2021 00:00
Search period end: 10 August 2021 00:00
Orbit: 630 x 664 km, 48.4° (Epoch: 30 July)

Date Brightness Start Highest point End Pass type
(mag) Time Alt. Az. Time Alt. Az. Time Alt. Az.
31 Jul 8.5 01:29:31 10° WNW 01:34:00 39° N 01:38:26 10° ENE visible
31 Jul 8.2 03:12:22 10° WNW 03:16:53 43° NNE 03:18:17 34° NE visible
31 Jul 9.3 04:54:38 10° WNW 04:55:54 18° WNW 04:55:54 18° WNW visible
01 Aug 8.5 01:55:53 10° WNW 02:00:18 37° N 02:04:40 10° ENE visible
01 Aug 7.7 03:38:23 10° WNW 03:42:32 57° NNW 03:42:32 57° NNW visible
02 Aug 8.5 00:39:11 10° W 00:43:41 40° N 00:48:09 10° ENE visible
02 Aug 8.2 02:22:05 10° WNW 02:26:36 42° NNE 02:29:13 22° ENE visible
02 Aug 8.6 04:04:22 10° WNW 04:06:50 31° WNW 04:06:50 31° WNW visible
03 Aug 8.5 01:05:34 10° WNW 01:10:00 37° N 01:14:23 10° ENE visible
03 Aug 7.5 02:48:06 10° WNW 02:52:48 59° NNE 02:53:33 51° ENE visible
03 Aug 9.6 04:30:31 10° WNW 04:31:11 14° WNW 04:31:11 14° WNW visible
04 Aug 8.2 01:31:47 10° WNW 01:36:18 41° N 01:40:19 12° E visible
04 Aug 7.5 03:14:05 10° WNW 03:17:56 59° WNW 03:17:56 59° WNW visible
05 Aug 7.6 01:57:49 10° WNW 02:02:31 56° NNE 02:04:44 29° E visible
05 Aug 8.9 03:40:12 10° WNW 03:42:21 25° W 03:42:21 25° W visible
06 Aug 8.2 00:41:29 10° WNW 00:46:00 40° N 00:50:28 10° E visible
06 Aug 7.0 02:23:48 10° WNW 02:28:34 89° SSW 02:29:11 67° ESE visible
07 Aug 7.7 01:07:32 10° WNW 01:12:14 54° NNE 01:16:03 15° E visible
07 Aug 7.9 02:49:53 10° WNW 02:53:41 42° WSW 02:53:41 42° WSW visible
08 Aug 7.1 01:33:30 10° WNW 01:38:18 86° NNE 01:40:36 30° ESE visible
08 Aug 9.2 03:16:25 10° W 03:18:14 18° WSW 03:18:14 18° WSW visible
09 Aug 7.5 01:59:34 10° WNW 02:04:10 50° SW 02:05:12 42° S visible
